[[{"header":{"parameterUnit":"m.s-1","parameterCategory":1,"la1":30.2991,"la2":30.254,"lo1":-89.0895,"lo2":-89.0444,"dy":0.0017,"dx":0.0017,"nx":28,"ny":28,"refTime":"2023-11-08T09:00:00:Z","depth":0,"parameterNumber":2,"parameterNumberName":"U-component_of_WINDS"},"data":[0,0,0,0,0,0,0,0,0,0,0,0,0,0,0,0,0,0,0,0,0,0,0,0,0,0,0,0,0,0,0,0,0,0,0,0,0,0,0,0,0,0,0,0,0,0,0,0,0,0,0,0,0,0,0,0,0,0,0.1339,0.1339,0,0.1394,0.1395,0.1396,0.1411,0.1411,0.1411,0.1411,0.1467,0.1469,0.1471,0,0,0,0,0,0,0,0,0,0,0,0,0,0.1246,0.1248,0.1339,0.1339,0.134,0.1394,0.1395,0.1396,0.1412,0.1411,0.1411,0.141,0.1467,0.1469,0.1471,0,0,0,0,0,0,0,0,0,0,0,0,0,0.1292,0.1248,0.1338,0.1354,0.1356,0.1394,0.1395,0.1396,0.1412,0.1411,0.1411,0.141,0.1466,0.1469,0.1471,0.1497,0,0,0.148,0.1481,0,0,0,0,0,0,0,0,0.129,0.1296,0.1351,0.1353,0.1356,0.1395,0.1383,0.143,0.1412,0.1391,0.1411,0.141,0.1444,0.1448,0.146,0.15,0.1502,0.148,0.1481,0.1483,0.1483,0,0,0,0,0,0,0,0.1286,0.1293,0.1361,0.1352,0.1355,0.1359,0.1365,0.1392,0.1419,0.1392,0.1394,0.14,0.1445,0.1457,0.1461,0.1503,0.148,0.1482,0.1484,0.1485,0.1567,0.1568,0,0,0,0,0,0,0.1281,0.1291,0.1359,0.1362,0.1321,0.1361,0.1368,0.1383,0.1419,0.1424,0.14,0.1401,0.1453,0.1458,0.1463,0.1496,0.1483,0.1485,0.1487,0.1567,0.1568,0.1568,0,0,0,0,0,0,0.1278,0.1286,0.1357,0.1327,0.1336,0.1363,0.138,0.1384,0.1397,0.1425,0.143,0.1408,0.1453,0.1459,0.1489,0.1498,0.1486,0.1489,0.1566,0.1567,0.1568,0.1562,0,0,0,0,0,0,0.1276,0.1286,0.1296,0.1327,0.1338,0.1381,0.1381,0.1386,0.1401,0.1402,0.1433,0.1438,0.1453,0.1485,0.1491,0.1502,0.1491,0.1565,0.1567,0.1568,0.1561,0.1562,0.1563,0,0,0,0,0,0.1272,0.1291,0.1296,0.1304,0.1351,0.1382,0.1388,0.1404,0.1402,0.1412,0.1431,0.1437,0.1496,0.1487,0.1495,0.1507,0.1565,0.1566,0.1567,0.1561,0.1562,0.1563,0,0,0,0,0,0,0.126,0.1296,0.1301,0.1331,0.1353,0.1384,0.1398,0.1405,0.1428,0.1428,0.1448,0.1455,0.1483,0.1497,0.1487,0.1534,0.1531,0.1534,0.1523,0.1524,0.1525,0.1521,0.1493,0,0,0,0,0,0.1261,0.1283,0.1313,0.1336,0.1347,0.1371,0.1385,0.1396,0.1419,0.1429,0.1449,0.1472,0.1496,0.1511,0.1534,0.1563,0.1571,0.1575,0.1576,0.1577,0.1579,0.1596,0.1599,0.1572,0.1572,0.1572,0,0,0.1263,0.1285,0.1298,0.1335,0.1353,0.1376,0.1378,0.1402,0.1419,0.1432,0.1461,0.1477,0.1504,0.1533,0.1547,0.1546,0.1588,0.1578,0.1579,0.1581,0.1598,0.16,0.1602,0.1573,0.1573,0.1573,0,0,0.1278,0.1297,0.1319,0.1337,0.1365,0.1381,0.1386,0.1416,0.1427,0.1456,0.1467,0.1488,0.1528,0.1547,0.1561,0.1584,0.1591,0.1591,0.1596,0.1613,0.1615,0.1617,0.1625,0.1628,0.1593,0.1593,0.1593,0,0.1276,0.1311,0.1329,0.1352,0.1368,0.1382,0.1404,0.1421,0.1455,0.1466,0.1465,0.1516,0.1535,0.1569,0.1575,0.1586,0.1593,0.1588,0.1613,0.1615,0.1617,0.1626,0.1629,0.1593,0.1593,0.1593,0.1593,0,0.1308,0.1332,0.1346,0.1379,0.1397,0.142,0.1441,0.1457,0.1466,0.1482,0.1512,0.1535,0.1564,0.1573,0.1582,0.1609,0.1607,0.1609,0.1607,0.1619,0.1628,0.1631,0.1593,0.1593,0.1593,0.1593,0,0,0.1317,0.136,0.1365,0.138,0.1412,0.1431,0.1455,0.1483,0.1496,0.1519,0.154,0.1574,0.1576,0.1593,0.1605,0.1619,0.1636,0.162,0.1621,0.1622,0.1667,0.1665,0.1669,0.1641,0.1642,0.1642,0.1665,0,0.1336,0.1379,0.1396,0.143,0.1453,0.1466,0.1487,0.1509,0.1524,0.1545,0.1562,0.1586,0.1587,0.1598,0.1612,0.1631,0.1645,0.1629,0.166,0.1661,0.1653,0.1673,0.1671,0.1692,0.1668,0.1669,0.1669,0,0.1364,0.1388,0.1425,0.1455,0.1465,0.1483,0.1511,0.1531,0.1556,0.1567,0.1586,0.1597,0.1622,0.1618,0.1653,0.1642,0.1655,0.1666,0.1668,0.1671,0.1666,0.1677,0.1699,0.1702,0.1674,0.1674,0.1674,0,0.1367,0.1408,0.1436,0.1449,0.1485,0.1497,0.1513,0.1538,0.1554,0.1578,0.1588,0.1615,0.1629,0.165,0.1667,0.1663,0.1701,0.1698,0.1711,0.171,0.1718,0.1717,0.1742,0.1726,0.1726,0.1726,0.1726,0,0.1387,0.1409,0.1438,0.1455,0.148,0.15,0.1524,0.1541,0.1563,0.1584,0.1597,0.1615,0.1638,0.166,0.1674,0.1701,0.1708,0.1717,0.172,0.1716,0.1715,0.1725,0.1724,0.1727,0.1727,0.1727,0.1727,0,0.1394,0.1414,0.1446,0.1477,0.1486,0.1503,0.153,0.1547,0.1563,0.1589,0.1596,0.1621,0.1648,0.1668,0.1702,0.1712,0.1741,0.1744,0.1732,0.1734,0.1745,0.1744,0.1778,0.1783,0.1763,0.1764,0.1764,0,0.1405,0.1423,0.1456,0.1471,0.1487,0.1511,0.1527,0.1547,0.1564,0.1594,0.1608,0.1635,0.1659,0.17,0.1722,0.1748,0.1752,0.1762,0.1756,0.1751,0.1753,0.1752,0.1754,0.1763,0.1763,0.1763,0.1763,0,0.1423,0.1433,0.1456,0.1484,0.1503,0.1526,0.1548,0.156,0.1584,0.1602,0.1629,0.1647,0.1683,0.171,0.1739,0.1754,0.1763,0.1765,0.1769,0.1765,0.1757,0.1762,0.1735,0.1764,0.1764,0.1764,0.1764,0.1764,0.1433,0.145,0.1476,0.1502,0.1522,0.1543,0.156,0.1579,0.1602,0.1633,0.1643,0.1672,0.1697,0.1736,0.1753,0.1775,0.1775,0.1781,0.1783,0.1784,0.1784,0.1754,0.1781,0.1781,0.1781,0.1781,0.1781,0,0.1452,0.147,0.1494,0.1525,0.1546,0.1553,0.1578,0.1595,0.162,0.1643,0.1666,0.1698,0.1724,0.1748,0.1776,0.1789,0.1794,0.1796,0.1795,0.1799,0.1782,0.1776,0.1792,0.1792,0.1792,0.1792,0.1792,0.1792,0.1464,0.1493,0.1505,0.1544,0.1561,0.159,0.1604,0.1623,0.1642,0.1677,0.1699,0.1715,0.1738,0.1768,0.1793,0.1799,0.1809,0.181,0.1817,0.1801,0.18,0.1798,0.1793,0.1812,0.1812,0.1832,0.1832,0.1832]},{"header":{"parameterUnit":"m.s-1","parameterCategory":1,"la1":30.2991,"la2":30.254,"lo1":-89.0895,"lo2":-89.0444,"dy":0.0017,"dx":0.0017,"nx":28,"ny":28,"refTime":"2023-11-08T09:00:00:Z","depth":0,"parameterNumber":3,"parameterNumberName":"V-component_of_WINDS"},"data":[0,0,0,0,0,0,0,0,0,0,0,0,0,0,0,0,0,0,0,0,0,0,0,0,0,0,0,0,0,0,0,0,0,0,0,0,0,0,0,0,0,0,0,0,0,0,0,0,0,0,0,0,0,0,0,0,0,0,2.8527,2.8527,0,2.8552,2.8552,2.8552,2.8535,2.8535,2.8534,2.8533,2.8556,2.8557,2.8559,0,0,0,0,0,0,0,0,0,0,0,0,0,2.8464,2.8465,2.8527,2.8527,2.8528,2.8552,2.8552,2.8552,2.8536,2.8535,2.8534,2.8533,2.8556,2.8557,2.8559,0,0,0,0,0,0,0,0,0,0,0,0,0,2.849,2.8466,2.8527,2.8522,2.8522,2.8552,2.8552,2.8553,2.8536,2.8535,2.8533,2.8532,2.8555,2.8557,2.8559,2.8594,0,0,2.8565,2.8566,0,0,0,0,0,0,0,0,2.8489,2.8493,2.8522,2.8522,2.8522,2.8539,2.8538,2.8566,2.8536,2.853,2.8533,2.8532,2.8551,2.8553,2.8561,2.8595,2.8596,2.8565,2.8566,2.8567,2.8568,0,0,0,0,0,0,0,2.8487,2.8491,2.8537,2.8523,2.8523,2.8518,2.8521,2.8544,2.8547,2.8531,2.853,2.8533,2.8551,2.8559,2.8561,2.8596,2.8565,2.8567,2.8568,2.8569,2.8664,2.8665,0,0,0,0,0,0,2.8486,2.849,2.8536,2.8537,2.8503,2.8521,2.8523,2.8535,2.8547,2.8547,2.8534,2.8532,2.8556,2.8559,2.8562,2.8606,2.8567,2.8569,2.857,2.8663,2.8664,2.8666,0,0,0,0,0,0,2.8485,2.849,2.8535,2.8513,2.8519,2.8523,2.8536,2.8536,2.8544,2.8549,2.8549,2.8541,2.8555,2.8559,2.8587,2.8606,2.857,2.8572,2.8661,2.8663,2.8665,2.8692,0,0,0,0,0,0,2.8483,2.849,2.8503,2.8514,2.852,2.856,2.8537,2.8537,2.8548,2.8545,2.8556,2.8557,2.8554,2.8584,2.8589,2.8608,2.8573,2.8659,2.8662,2.8664,2.869,2.8695,2.8699,0,0,0,0,0,2.8481,2.8508,2.8504,2.8509,2.8537,2.8561,2.8564,2.8562,2.8549,2.8563,2.8567,2.8556,2.8603,2.8587,2.8592,2.8612,2.8658,2.8661,2.8664,2.8687,2.8694,2.8699,0,0,0,0,0,0,2.8498,2.851,2.8505,2.8537,2.8548,2.8558,2.8575,2.8569,2.8583,2.858,2.8576,2.8579,2.8609,2.8613,2.8595,2.8648,2.8629,2.8633,2.8644,2.8651,2.8655,2.8654,2.8575,0,0,0,0,0,2.8505,2.8525,2.8534,2.8561,2.8568,2.8571,2.8581,2.8579,2.859,2.8594,2.86,2.8611,2.8628,2.8639,2.8655,2.869,2.8693,2.8707,2.8712,2.8716,2.872,2.8741,2.8747,2.8676,2.8676,2.8675,0,0,2.8521,2.853,2.8542,2.8565,2.8574,2.8594,2.8574,2.8596,2.8611,2.8597,2.8625,2.863,2.8641,2.8674,2.8688,2.8678,2.874,2.872,2.8723,2.8724,2.8744,2.8751,2.8757,2.8678,2.8677,2.8677,0,0,2.856,2.8568,2.8594,2.8604,2.8618,2.862,2.8626,2.8638,2.8641,2.8669,2.866,2.8678,2.8707,2.8717,2.8726,2.8772,2.8764,2.8778,2.8803,2.8824,2.883,2.8835,2.8853,2.8859,2.8781,2.8781,2.8781,0,2.8577,2.8608,2.8607,2.863,2.8642,2.8632,2.8658,2.8667,2.8685,2.8693,2.8682,2.8722,2.8728,2.8764,2.8776,2.8783,2.8791,2.8776,2.8829,2.8834,2.8839,2.8856,2.8863,2.8783,2.8783,2.8783,2.8782,0,2.863,2.8651,2.867,2.869,2.8704,2.8728,2.8731,2.8744,2.8742,2.8745,2.8775,2.8784,2.8803,2.8811,2.8807,2.8847,2.8841,2.883,2.881,2.8847,2.8864,2.887,2.8785,2.8785,2.8784,2.8784,0,0,2.8678,2.87,2.8707,2.8718,2.8734,2.8751,2.8775,2.8796,2.8808,2.8822,2.8843,2.887,2.8861,2.8871,2.8868,2.8886,2.8926,2.8873,2.8873,2.8884,2.8972,2.8981,2.8989,2.892,2.8921,2.8922,2.8972,0,2.872,2.8764,2.8765,2.8806,2.8827,2.882,2.8842,2.8855,2.8859,2.8878,2.8882,2.8902,2.8887,2.8894,2.8912,2.8917,2.8943,2.8913,2.894,2.8941,2.8939,2.8997,2.9006,2.9052,2.8978,2.8979,2.8979,0,2.8773,2.8791,2.8835,2.8852,2.886,2.888,2.89,2.8918,2.8933,2.8935,2.8948,2.8944,2.897,2.895,2.8986,2.8966,2.8977,2.8982,2.8983,2.8986,2.8963,2.9003,2.9066,2.9074,2.8989,2.8988,2.8988,0,2.8806,2.8841,2.8873,2.8882,2.8901,2.8916,2.8924,2.8938,2.8951,2.8969,2.8978,2.8997,2.9008,2.9023,2.9025,2.901,2.9063,2.9042,2.9066,2.9066,2.9077,2.9077,2.9145,2.9083,2.9083,2.9083,2.9083,0,2.8853,2.888,2.8889,2.8908,2.8939,2.894,2.8971,2.8978,2.8991,2.9012,2.9006,2.9026,2.9027,2.9047,2.9048,2.908,2.9084,2.9087,2.9087,2.9088,2.9088,2.9096,2.9093,2.9085,2.9084,2.9084,2.9084,0,2.8895,2.8901,2.8936,2.8953,2.8958,2.898,2.8994,2.9013,2.9018,2.9045,2.9051,2.9059,2.9083,2.9087,2.9114,2.9115,2.9153,2.9149,2.9149,2.9149,2.9173,2.9171,2.9249,2.9261,2.9191,2.9191,2.9192,0,2.8924,2.8946,2.8966,2.8981,2.8991,2.9014,2.9028,2.9031,2.9046,2.9067,2.9084,2.9107,2.9127,2.9165,2.9173,2.9195,2.9192,2.9218,2.9195,2.9196,2.9194,2.9194,2.9197,2.9222,2.9223,2.9224,2.9224,0,2.8976,2.898,2.9001,2.9025,2.9043,2.9061,2.9078,2.909,2.9096,2.9113,2.9139,2.9154,2.9184,2.9208,2.923,2.9238,2.9233,2.9232,2.9239,2.924,2.924,2.9242,2.9162,2.923,2.9229,2.9229,2.9229,2.9228,2.9014,2.9034,2.9053,2.9078,2.9092,2.9109,2.9128,2.9138,2.9159,2.9185,2.9185,2.9214,2.923,2.926,2.927,2.9293,2.9284,2.9294,2.9296,2.9299,2.9302,2.9236,2.9296,2.9296,2.9296,2.9296,2.9296,0,2.9067,2.908,2.9103,2.9129,2.9149,2.9144,2.9164,2.9181,2.9207,2.9223,2.9244,2.9274,2.9298,2.931,2.9334,2.935,2.9348,2.9356,2.9355,2.9358,2.9308,2.93,2.9357,2.9357,2.9357,2.9357,2.9357,2.9357,2.9097,2.9132,2.9138,2.918,2.9192,2.9221,2.9233,2.9249,2.9263,2.9298,2.9319,2.9327,2.9342,2.9368,2.939,2.9393,2.9402,2.9412,2.9414,2.9367,2.9361,2.9355,2.9348,2.9414,2.9414,2.9462,2.9462,2.9463]}]]